Miscellaneous Local Product
Issued by NWS North Platte, NE

Home | Current Version | Previous Version | Text Only | Print | Product List | Glossary On
Versions: 1 2 3 4 5 6 7 8 9 10 11 12 13 14 15 16 17 18 19 20 21 22 23 24 25 26 27 28 29 30 31 32 33 34 35 36 37 38 39 40 41 42 43 44 45 46 47 48 49 50
000
AXUS43 KLBF 010610
MISLBF


WESTERN AND NORTH CENTRAL NEBRASKA HOURLY WEATHER ROUNDUP
NATIONAL WEATHER SERVICE NORTH PLATTE NE
100 AM CDT FRI AUG 01 2014

***STATIONS NOT REPORTING VARIABLES SUCH AS SKY/WEATHER OR
PRESSURE ARE PROVIDED BY THE NEBRASKA DEPARTMENT OF
ROADS...RAWS...AND APRS NETWORKS...AND ARE NOT UNDER
NATIONAL WEATHER SERVICE QUALITY CONTROL***

...OBSERVATIONS IN AND NEAR THE EASTERN PANHANDLE OF NEBRASKA...

CITY           SKY/WX    TMP DP  RH WIND       PRES   REMARKS
PINE RIDGE     PTCLDY    55  52  89 S5        30.14F
CHADRON        CLEAR     60  47  61 CALM      30.15S
ALLIANCE       PTCLDY    63  46  54 CALM      30.18F
SIDNEY         CLEAR     62  44  51 E6        30.22S
WHITECLAY        N/A     55  49  81 E7          N/A
RUSHVILLE        N/A     56  47  71 W5          N/A
GORDON           N/A     68  54  60 NW6         N/A
CRESCENT LAKE    N/A     66  48  52 CALM        N/A
LISCO            N/A     62  53  73 CALM        N/A
BIG SPRINGS      N/A     64  55  72 CALM        N/A
$$

...OBSERVATIONS IN NORTH CENTRAL NEBRASKA...

CITY           SKY/WX    TMP DP  RH WIND       PRES   REMARKS
VALENTINE      CLEAR     68  58  70 S7        30.11S
THEDFORD       CLEAR     63  55  75 CALM      30.14S
AINSWORTH      CLEAR     62  60  94 S3        30.12S
O`NEILL        CLEAR     65  62  91 CALM      30.10S
ORD            CLEAR     62  60  93 CALM      30.08S
BROKEN BOW     CLEAR     59  57  93 N3        30.11S
BROWNLEE         N/A     69  58  68 SE5         N/A
SPRINGVIEW       N/A     64  60  88 CALM        N/A
DUNNING          N/A     65  64  96 CALM        N/A
ROSE             N/A     67  67  99 E5          N/A
NEWPORT          N/A     64  64 100 CALM        N/A
SARGENT          N/A     62  59  91 CALM        N/A
COMSTOCK         N/A     66  64  94 CALM        N/A
CHAMBERS         N/A     63  60  90 CALM        N/A
EWING            N/A     64  59  85 CALM        N/A
$$

...OBSERVATIONS IN SOUTHWEST NEBRASKA AND FAR NORTHEAST COLORADO...

CITY           SKY/WX    TMP DP  RH WIND       PRES   REMARKS
WRAY             N/A     67  56  69 CALM      30.18R
HOLYOKE        FAIR      63  59  88 NE3       30.18S
IMPERIAL       CLEAR     65  54  67 E3        30.15S
OGALLALA       CLEAR     56  51  82 CALM      30.16R
NORTH PLATTE   CLEAR     60  52  74 NE3       30.13R
MCCOOK         CLEAR     66  55  67 N3        30.11S
LEXINGTON      CLEAR     60  56  88 NW5       30.10F
PAXTON           N/A     63  57  80 CALM        N/A
SUTHERLAND       N/A     60  55  83 W3          N/A
BRADY            N/A     63  53  71 CALM        N/A
GOTHENBURG       N/A     66  53  62 CALM        N/A
CALLAWAY         N/A     61  58  88 E3          N/A
$$

...SOME WEATHER OBSERVATIONS FROM AROUND THE REGION...

CITY           SKY/WX    TMP DP  RH WIND       PRES   REMARKS
DENVER         PTCLDY    63  52  67 SW9       30.28S
LARAMIE        CLEAR     52  46  80 S5        30.37S
CHEYENNE       CLEAR     59  49  69 NW5       30.32R
SCOTTSBLUFF    CLEAR     61  52  72 E7        30.19S
RAPID CITY     PTCLDY    60  51  72 NW7       30.12F
PIERRE         CLEAR     64  59  83 SE6       30.05S
WINNER         FAIR      67  58  72 SE6       30.09R
SIOUX FALLS    CLEAR     61  59  93 SW3       30.08R
OMAHA          CLOUDY    73  58  59 S9        30.06S THUNDER
GRAND ISLAND   CLEAR     64  60  87 N6        30.07S
KANSAS CITY    PTCLDY    65  58  78 SE6       30.06F
WICHITA        PTCLDY    65  60  84 S6        30.08R
HAYS           PTCLDY    66  55  68 SW7       30.09S
LIBERAL        MOCLDY    64  55  72 SW6       30.19S
GOODLAND       CLEAR     63  53  70 W10       30.17S
$$



USA.gov is the U.S. government's official web portal to all federal, state and local government web resources and services.